RH
69 67 65 63 63 63 63 61 55 48 42 36 33 31 24 17 15 14 14 14 14 14 13 13 13 13 13 13 12 12 12 12 12 12 12 11 11 11 11 10 10 11
68 68 66 65 67 66 64 66 62 53 46 40 36 33 27 20 16 15 15 14 14 14 15 14 15 15 14 14 15 15 15 15 14 14 14 13 13 12 12 13 14 15
66 70 69 68 70 70 67 70 70 57 47 43 38 33 28 23 19 17 17 16 17 17 18 19 20 20 21 21 22 22 21 21 21 21 21 20 20 21 22 23 23 23
69 75 74 70 71 74 72 72 72 62 49 45 42 36 32 28 23 22 22 23 23 24 25 26 27 27 28 28 28 28 28 27 27 27 27 27 28 29 31 33 33 33
64 72 73 69 67 72 75 75 74 64 52 47 46 41 37 35 31 30 29 30 30 30 31 31 31 32 32 33 34 34 34 35 34 34 34 34 34 34 34 35 35 36
53 60 64 63 61 65 71 72 69 60 51 50 49 47 44 40 39 38 37 36 35 34 34 33 34 35 35 36 37 38 40 40 40 40 40 39 39 39 39 38 38 38
48 55 58 56 55 62 65 62 58 53 50 49 49 51 49 44 43 42 41 40 39 37 36 35 36 37 38 39 40 41 43 43 43 44 43 43 43 42 42 42 42 42
42 48 53 51 50 56 58 54 54 54 51 49 49 51 51 48 48 47 44 41 40 38 37 37 39 40 41 42 43 44 45 46 47 47 47 47 46 45 47 48 48 47
38 42 49 50 47 51 51 48 51 54 52 49 48 47 48 47 48 49 48 45 44 43 42 41 44 46 47 46 45 46 47 48 50 52 52 50 50 52 54 55 54 53
39 39 46 51 49 49 48 45 49 54 54 53 51 47 46 46 47 48 49 48 49 49 48 49 50 52 52 51 50 49 50 50 52 54 55 55 57 59 61 62 61 60
42 40 45 51 49 48 49 49 51 56 57 57 55 52 49 50 51 51 52 54 55 55 54 55 56 59 59 57 56 56 54 54 54 54 55 58 60 62 62 64 65 65
46 45 48 53 51 48 51 52 53 57 59 57 56 56 55 56 58 58 59 61 61 61 61 62 62 64 65 64 63 63 61 60 59 58 57 58 59 61 62 62 63 64
48 48 53 58 56 53 53 53 53 55 56 57 59 60 60 63 67 69 68 67 66 67 68 69 70 71 71 71 70 71 70 69 67 64 63 61 61 61 61 62 63 64
52 50 53 58 60 59 57 58 59 60 57 59 64 65 66 69 72 72 71 69 69 69 70 72 78 80 79 78 78 79 79 78 75 72 69 68 67 65 62 62 63 65
53 53 52 54 56 57 56 58 64 70 68 64 66 71 74 75 73 70 70 70 70 72 73 77 83 85 84 84 86 87 86 85 83 81 79 76 73 71 68 65 62 62
49 50 49 49 51 52 56 59 63 72 77 71 67 71 76 79 77 72 72 74 77 78 81 85 87 86 84 85 88 89 90 89 88 85 82 79 75 73 71 66 60 59
44 46 46 48 51 54 59 61 61 69 79 79 74 74 75 79 80 78 76 79 82 83 82 83 85 84 83 84 85 87 88 87 86 83 79 76 73 70 66 61 57 55
43 47 48 50 51 52 53 57 59 65 73 77 77 77 78 80 82 83 82 81 80 74 70 72 75 75 77 79 81 82 83 81 79 77 74 68 62 58 53 49 47 46
44 50 52 54 56 53 50 51 57 63 67 70 72 76 79 79 79 78 76 74 69 60 56 58 61 60 60 63 66 68 71 72 71 68 62 55 51 48 45 42 39 37
49 54 56 56 58 58 56 55 58 62 64 65 69 75 77 76 75 73 71 68 63 55 50 50 51 51 53 54 56 59 59 58 56 52 47 45 44 43 41 40 37 34
52 55 56 56 57 59 60 60 61 63 63 64 68 72 73 74 76 74 71 70 65 58 54 53 52 53 55 55 56 57 53 50 47 45 43 42 41 39 37 36 35 33
52 53 53 53 54 57 59 59 60 61 62 64 67 69 70 71 74 76 74 71 67 63 61 60 59 59 59 57 55 51 48 48 47 46 44 41 39 37 36 35 33 32
52 53 52 51 51 56 59 60 60 61 62 65 69 72 73 71 69 71 72 70 69 68 67 66 66 66 64 59 53 48 46 48 48 48 46 43 39 39 38 37 34 32
50 50 49 49 52 57 61 61 62 64 66 68 69 72 78 79 74 68 67 68 67 68 71 73 72 69 64 58 53 50 49 50 50 50 48 45 43 42 41 40 38 35
47 47 46 47 52 61 66 66 65 67 69 69 69 70 76 81 81 77 74 72 69 69 75 77 72 65 61 59 57 54 53 52 51 50 49 49 47 46 45 43 41 39
50 48 49 47 48 56 65 68 68 70 70 69 70 69 69 71 75 79 79 75 71 72 76 73 67 64 64 63 60 57 54 53 52 52 51 50 49 47 46 45 44 44